FIN7RM EFRO-EFKI

Flight info

Callsign FIN7RM
Flight time 0h 34m
Altitude 29000
Route RENVI Y86 EVSET T95 UBIGA
Aircraft A319/M-SDE3FGHIRWY/LB1

Departure

Time 2026-04-21 15:40
Airport Rovaniemi Airport (EFRO)

Arrival

Time 2026-04-21 16:14
Airport Kajaani Airport (EFKI)
Time Latitude Longitude Altitude Speed Heading
2026-04-21 15:29 66.55911 25.82944 631 ft 0 kts 168°
2026-04-21 15:34 66.55918 25.82941 631 ft 4 kts 167°
2026-04-21 15:34 66.55944 25.82925 633 ft 4 kts 167°
2026-04-21 15:34 66.55969 25.82917 632 ft 4 kts 200°
2026-04-21 15:35 66.55979 25.82932 632 ft 0 kts 258°
2026-04-21 15:36 66.55976 25.82892 633 ft 6 kts 258°
2026-04-21 15:37 66.55962 25.82733 633 ft 13 kts 258°
2026-04-21 15:37 66.55918 25.82513 634 ft 15 kts 219°
2026-04-21 15:37 66.55825 25.82332 627 ft 19 kts 218°
2026-04-21 15:37 66.55712 25.82112 620 ft 21 kts 217°
2026-04-21 15:38 66.55599 25.81896 627 ft 20 kts 217°
2026-04-21 15:38 66.55496 25.81703 630 ft 17 kts 218°
2026-04-21 15:38 66.55407 25.81534 636 ft 15 kts 218°
2026-04-21 15:38 66.55340 25.81341 639 ft 15 kts 259°
2026-04-21 15:39 66.55400 25.81111 634 ft 20 kts 333°
2026-04-21 15:39 66.55523 25.81215 630 ft 24 kts 37°
2026-04-21 15:39 66.55794 25.81727 631 ft 88 kts 37°
2026-04-21 15:39 66.56483 25.83035 648 ft 156 kts 37°
2026-04-21 15:40 66.57347 25.84723 1357 ft 156 kts 32°
2026-04-21 15:40 66.58210 25.86374 2106 ft 161 kts 28°
2026-04-21 15:40 66.59181 25.88176 2546 ft 185 kts 30°
2026-04-21 15:40 66.60281 25.90238 3114 ft 205 kts 31°
2026-04-21 15:41 66.61277 25.92925 4002 ft 220 kts 62°
2026-04-21 15:41 66.61426 25.96858 4827 ft 245 kts 101°
2026-04-21 15:41 66.60672 26.00910 5526 ft 265 kts 123°
2026-04-21 15:41 66.59484 26.04534 6434 ft 274 kts 142°
2026-04-21 15:42 66.57792 26.06710 7332 ft 276 kts 167°
2026-04-21 15:42 66.55893 26.07413 8195 ft 283 kts 184°
2026-04-21 15:42 66.53924 26.06562 8842 ft 291 kts 206°
2026-04-21 15:42 66.52086 26.04490 9731 ft 296 kts 210°
2026-04-21 15:43 66.50185 26.02268 10411 ft 312 kts 210°
2026-04-21 15:43 66.48152 25.99873 10787 ft 335 kts 210°
2026-04-21 15:43 66.45986 25.97327 11391 ft 349 kts 209°
2026-04-21 15:43 66.43770 25.94734 12209 ft 355 kts 209°
2026-04-21 15:44 66.41517 25.92110 13048 ft 360 kts 209°
2026-04-21 15:44 66.39233 25.89465 13883 ft 364 kts 209°
2026-04-21 15:44 66.36965 25.86840 14602 ft 368 kts 208°
2026-04-21 15:44 66.34637 25.84149 15359 ft 371 kts 208°
2026-04-21 15:45 66.32279 25.81425 16107 ft 375 kts 208°
2026-04-21 15:45 66.29902 25.78680 16854 ft 379 kts 208°
2026-04-21 15:45 66.27501 25.75901 17586 ft 383 kts 208°
2026-04-21 15:45 66.25078 25.73102 18315 ft 386 kts 208°
2026-04-21 15:46 66.22625 25.70280 18946 ft 390 kts 208°
2026-04-21 15:46 66.20148 25.67439 19575 ft 394 kts 208°
2026-04-21 15:46 66.17643 25.64572 20199 ft 399 kts 208°
2026-04-21 15:46 66.15112 25.61684 20818 ft 403 kts 208°
2026-04-21 15:47 66.13425 25.59760 21227 ft 406 kts 209°
2026-04-21 15:47 66.10846 25.56827 21845 ft 410 kts 208°
2026-04-21 15:47 66.08148 25.54366 22432 ft 419 kts 198°
2026-04-21 15:47 66.05254 25.53073 22979 ft 427 kts 187°
2026-04-21 15:48 66.02260 25.52810 23536 ft 433 kts 183°
2026-04-21 15:48 65.99237 25.52641 24030 ft 437 kts 182°
2026-04-21 15:48 65.96193 25.52472 24520 ft 439 kts 182°
2026-04-21 15:48 65.93136 25.52298 25035 ft 441 kts 182°
2026-04-21 15:49 65.90055 25.52114 25534 ft 443 kts 182°
2026-04-21 15:49 65.86966 25.51925 26040 ft 445 kts 182°
2026-04-21 15:49 65.83866 25.51738 26535 ft 447 kts 182°
2026-04-21 15:49 65.80750 25.51552 27042 ft 449 kts 182°
2026-04-21 15:50 65.77619 25.51365 27532 ft 451 kts 182°
2026-04-21 15:50 65.74477 25.51180 28015 ft 453 kts 181°
2026-04-21 15:50 65.71311 25.50998 28493 ft 455 kts 181°
2026-04-21 15:50 65.68138 25.50814 28932 ft 457 kts 181°
2026-04-21 15:51 65.64966 25.50622 29058 ft 452 kts 181°
2026-04-21 15:51 65.61835 25.50430 29070 ft 455 kts 181°
2026-04-21 15:51 65.58616 25.50232 29069 ft 468 kts 181°
2026-04-21 15:51 65.55328 25.50031 29069 ft 478 kts 181°
2026-04-21 15:52 65.48560 25.49634 29079 ft 492 kts 181°
2026-04-21 15:52 65.41696 25.49252 29079 ft 494 kts 181°
2026-04-21 15:53 65.34832 25.48851 29086 ft 493 kts 181°
2026-04-21 15:53 65.27970 25.48442 29086 ft 493 kts 181°
2026-04-21 15:54 65.21157 25.48051 29094 ft 493 kts 181°
2026-04-21 15:54 65.14301 25.47651 29098 ft 493 kts 181°
2026-04-21 15:55 65.07443 25.47259 29107 ft 492 kts 181°
2026-04-21 15:55 65.00649 25.48524 29112 ft 491 kts 165°
2026-04-21 15:56 64.97456 25.51354 29118 ft 489 kts 153°
2026-04-21 15:56 64.94609 25.55509 28928 ft 473 kts 141°
2026-04-21 15:56 64.92174 25.60487 28651 ft 455 kts 137°
2026-04-21 15:56 64.89851 25.65376 28351 ft 442 kts 137°
2026-04-21 15:57 64.87570 25.70143 28068 ft 435 kts 137°
2026-04-21 15:57 64.85312 25.74835 27616 ft 431 kts 137°
2026-04-21 15:57 64.83072 25.79467 27005 ft 427 kts 137°
2026-04-21 15:57 64.80852 25.84040 26420 ft 424 kts 137°
2026-04-21 15:58 64.78638 25.88586 25837 ft 421 kts 137°
2026-04-21 15:58 64.76444 25.93087 25269 ft 418 kts 137°
2026-04-21 15:58 64.74256 25.97566 24721 ft 416 kts 137°
2026-04-21 15:58 64.72078 26.02016 24185 ft 415 kts 137°
2026-04-21 15:59 64.69899 26.06447 23642 ft 415 kts 137°
2026-04-21 15:59 64.67727 26.10860 23098 ft 412 kts 137°
2026-04-21 15:59 64.65616 26.15338 22616 ft 407 kts 132°
2026-04-21 15:59 64.63668 26.20090 22146 ft 403 kts 131°
2026-04-21 16:00 64.61738 26.24796 21679 ft 400 kts 131°
2026-04-21 16:00 64.59821 26.29452 21210 ft 396 kts 131°
2026-04-21 16:00 64.57917 26.34056 20733 ft 393 kts 131°
2026-04-21 16:00 64.56026 26.38619 20262 ft 391 kts 131°
2026-04-21 16:01 64.54143 26.43154 19774 ft 389 kts 131°
2026-04-21 16:01 64.52267 26.47657 19293 ft 387 kts 131°
2026-04-21 16:01 64.50395 26.52142 18775 ft 386 kts 131°
2026-04-21 16:01 64.48532 26.56600 18299 ft 384 kts 132°
2026-04-21 16:02 64.46672 26.61043 17750 ft 383 kts 132°
2026-04-21 16:02 64.44826 26.65441 17263 ft 380 kts 132°
2026-04-21 16:02 64.42987 26.69804 16777 ft 377 kts 132°
2026-04-21 16:02 64.41162 26.74129 16290 ft 374 kts 132°
2026-04-21 16:03 64.39364 26.78446 15818 ft 371 kts 129°
2026-04-21 16:03 64.37857 26.83216 15342 ft 365 kts 117°
2026-04-21 16:03 64.36654 26.88342 14866 ft 362 kts 115°
2026-04-21 16:03 64.35467 26.93444 14398 ft 360 kts 115°
2026-04-21 16:04 64.34282 26.98512 13929 ft 358 kts 115°
2026-04-21 16:04 64.33236 27.03680 13401 ft 352 kts 105°
2026-04-21 16:04 64.32679 27.09030 12934 ft 344 kts 93°
2026-04-21 16:04 64.32611 27.14468 12476 ft 336 kts 82°
2026-04-21 16:05 64.32972 27.19724 12001 ft 330 kts 75°
2026-04-21 16:05 64.33415 27.24959 11550 ft 327 kts 75°
2026-04-21 16:05 64.33840 27.30098 11075 ft 325 kts 76°
2026-04-21 16:05 64.34255 27.35214 10619 ft 323 kts 76°
2026-04-21 16:06 64.34655 27.40182 10405 ft 313 kts 75°
2026-04-21 16:06 64.35043 27.45031 10279 ft 302 kts 75°
2026-04-21 16:06 64.35419 27.49731 10058 ft 294 kts 75°
2026-04-21 16:06 64.35791 27.54331 9990 ft 291 kts 75°
2026-04-21 16:07 64.36166 27.58947 9639 ft 293 kts 75°
2026-04-21 16:07 64.36540 27.63563 9217 ft 292 kts 75°
2026-04-21 16:07 64.36907 27.68137 8802 ft 290 kts 76°
2026-04-21 16:07 64.37263 27.72654 8599 ft 281 kts 76°
2026-04-21 16:08 64.37956 27.81444 7751 ft 279 kts 76°
2026-04-21 16:08 64.38304 27.85875 7263 ft 281 kts 76°
2026-04-21 16:08 64.38651 27.90322 6858 ft 280 kts 76°
2026-04-21 16:09 64.38994 27.94733 6468 ft 278 kts 76°
2026-04-21 16:09 64.39311 27.99114 6068 ft 276 kts 81°
2026-04-21 16:09 64.39019 28.03491 5650 ft 281 kts 112°
2026-04-21 16:09 64.37785 28.06952 5192 ft 283 kts 146°
2026-04-21 16:10 64.35958 28.08497 4710 ft 280 kts 173°
2026-04-21 16:10 64.34060 28.09012 4250 ft 268 kts 185°
2026-04-21 16:10 64.32383 28.07734 3830 ft 247 kts 222°
2026-04-21 16:10 64.31400 28.04787 3485 ft 224 kts 255°
2026-04-21 16:11 64.31072 28.01406 3173 ft 211 kts 265°
2026-04-21 16:11 64.30817 27.98142 2864 ft 203 kts 264°
2026-04-21 16:11 64.30572 27.94989 2571 ft 197 kts 264°
2026-04-21 16:11 64.30335 27.91934 2285 ft 190 kts 264°
2026-04-21 16:12 64.30182 27.89997 2134 ft 182 kts 264°
2026-04-21 16:12 64.29895 27.86389 1796 ft 159 kts 264°
2026-04-21 16:12 64.29707 27.84065 1590 ft 137 kts 265°
2026-04-21 16:12 64.29541 27.82009 1400 ft 127 kts 264°
2026-04-21 16:13 64.29385 27.80028 1237 ft 124 kts 264°
2026-04-21 16:13 64.29230 27.78074 1060 ft 123 kts 263°
2026-04-21 16:13 64.29083 27.76167 879 ft 120 kts 263°
2026-04-21 16:13 64.28952 27.74281 733 ft 119 kts 264°
2026-04-21 16:14 64.28803 27.72410 571 ft 118 kts 263°
2026-04-21 16:14 64.28663 27.70637 478 ft 100 kts 260°
2026-04-21 16:14 64.28563 27.69375 470 ft 56 kts 259°
2026-04-21 16:14 64.28515 27.68758 467 ft 33 kts 260°
2026-04-21 16:15 64.28475 27.68240 461 ft 34 kts 260°
2026-04-21 16:15 64.28437 27.67746 454 ft 24 kts 260°
2026-04-21 16:15 64.28369 27.67610 452 ft 12 kts 176°
2026-04-21 16:15 64.28306 27.67649 453 ft 9 kts 161°
2026-04-21 16:16 64.28264 27.67735 453 ft 8 kts 140°
2026-04-21 16:16 64.28204 27.67771 453 ft 8 kts 168°
2026-04-21 16:16 64.28159 27.67771 454 ft 5 kts 213°
2026-04-21 16:16 64.28162 27.67693 453 ft 5 kts 284°
2026-04-21 16:17 64.28165 27.67669 453 ft 0 kts 285°